When you browse on this site, cookies collect data to enhance your experience and personalize the content and advertising you see.
Visit our Privacy Policy to learn more. By continuing to use the site, you agree to this use of cookies and data.
EN

Hourly Weather Barcelona

Today, 10 July, Friday

Time Temperature Precipitation Wind Pressure Humidity
00:00 +26°C° 0 mm 2 mps 759 mmHg 90%
01:00 +25°C° 0 mm 2 mps 759 mmHg 91%
02:00 +25°C° 0 mm 1 mps 759 mmHg 91%
03:00 +25°C° 0 mm 1 mps 759 mmHg 92%
04:00 +24°C° 0 mm 1 mps 759 mmHg 92%
05:00 +24°C° 0 mm 1 mps 759 mmHg 93%
06:00 +26°C° 0 mm 1 mps 759 mmHg 88%
07:00 +27°C° 0 mm 1 mps 759 mmHg 83%
08:00 +28°C° 0 mm 1 mps 760 mmHg 79%
09:00 +30°C° 0 mm 1 mps 760 mmHg 72%
10:00 +32°C° 0 mm 1 mps 760 mmHg 65%
11:00 +34°C° 0 mm 1 mps 760 mmHg 58%
12:00 +34°C° 0.8 mm 2 mps 759 mmHg 65%
13:00 +32°C° 0.8 mm 2 mps 759 mmHg 71%
14:00 +31°C° 0.8 mm 3 mps 758 mmHg 77%
15:00 +31°C° 0.6 mm 3 mps 758 mmHg 79%
16:00 +30°C° 0.6 mm 4 mps 757 mmHg 81%
17:00 +30°C° 0.6 mm 5 mps 757 mmHg 84%
18:00 +29°C° 0.6 mm 5 mps 757 mmHg 86%
19:00 +28°C° 0.6 mm 4 mps 758 mmHg 88%
20:00 +27°C° 0.6 mm 4 mps 758 mmHg 90%
21:00 +27°C° 0 mm 3 mps 759 mmHg 91%
22:00 +27°C° 0 mm 3 mps 759 mmHg 92%
23:00 +26°C° 0 mm 3 mps 759 mmHg 93%

Tomorrow, 11 July, Saturday

Time Temperature Precipitation Wind Pressure Humidity
00:00 +26°C° 0 mm 2 mps 759 mmHg 94%
01:00 +26°C° 0 mm 2 mps 759 mmHg 94%
02:00 +25°C° 0 mm 2 mps 759 mmHg 95%
03:00 +25°C° 0 mm 2 mps 758 mmHg 95%
04:00 +25°C° 0 mm 1 mps 758 mmHg 95%
05:00 +25°C° 0 mm 1 mps 758 mmHg 95%
06:00 +26°C° 0 mm 1 mps 758 mmHg 93%
07:00 +26°C° 0 mm 1 mps 759 mmHg 91%
08:00 +27°C° 0 mm 1 mps 759 mmHg 89%
09:00 +29°C° 0 mm 1 mps 759 mmHg 80%
10:00 +31°C° 0 mm 1 mps 759 mmHg 71%
11:00 +34°C° 0 mm 2 mps 759 mmHg 62%
12:00 +34°C° 0.2 mm 2 mps 759 mmHg 64%
13:00 +34°C° 0.2 mm 2 mps 758 mmHg 65%
14:00 +32°C° 0.2 mm 2 mps 757 mmHg 66%
15:00 +32°C° 0.4 mm 2 mps 757 mmHg 69%
16:00 +31°C° 0.4 mm 3 mps 756 mmHg 72%
17:00 +30°C° 0.4 mm 3 mps 756 mmHg 76%
18:00 +29°C° 0.8 mm 3 mps 757 mmHg 81%
19:00 +28°C° 0.8 mm 3 mps 757 mmHg 86%
20:00 +27°C° 0.8 mm 3 mps 758 mmHg 91%
21:00 +27°C° 0.4 mm 2 mps 758 mmHg 92%
22:00 +26°C° 0.4 mm 2 mps 759 mmHg 93%
23:00 +26°C° 0.4 mm 1 mps 759 mmHg 94%

Day after tomorrow, 12 July, Sunday

Time Temperature Precipitation Wind Pressure Humidity
00:00 +26°C° 0 mm 1 mps 759 mmHg 94%
01:00 +26°C° 0 mm 2 mps 758 mmHg 94%
02:00 +25°C° 0 mm 2 mps 758 mmHg 94%
03:00 +25°C° 0 mm 1 mps 758 mmHg 94%
04:00 +25°C° 0 mm 1 mps 758 mmHg 94%
05:00 +26°C° 0 mm 1 mps 758 mmHg 93%
06:00 +26°C° 0 mm 1 mps 759 mmHg 91%
07:00 +27°C° 0 mm 1 mps 759 mmHg 89%
08:00 +26°C° 0 mm 0 mps 760 mmHg 87%
09:00 +30°C° 0.1 mm 1 mps 760 mmHg 77%
10:00 +32°C° 0.1 mm 1 mps 760 mmHg 67%
11:00 +34°C° 0.1 mm 1 mps 759 mmHg 57%
12:00 +35°C° 0.3 mm 2 mps 759 mmHg 60%
13:00 +34°C° 0.3 mm 2 mps 758 mmHg 63%
14:00 +34°C° 0.3 mm 3 mps 758 mmHg 65%
15:00 +33°C° 0.6 mm 3 mps 757 mmHg 70%
16:00 +31°C° 0.6 mm 3 mps 757 mmHg 74%
17:00 +30°C° 0.6 mm 3 mps 756 mmHg 78%
18:00 +29°C° 0.2 mm 3 mps 757 mmHg 83%
19:00 +28°C° 0.2 mm 3 mps 757 mmHg 87%
20:00 +27°C° 0.2 mm 4 mps 758 mmHg 91%
21:00 +27°C° 0 mm 3 mps 759 mmHg 91%
22:00 +26°C° 0 mm 3 mps 759 mmHg 92%
23:00 +26°C° 0 mm 2 mps 760 mmHg 93%

13 July, Monday

Time Temperature Precipitation Wind Pressure Humidity
00:00 +26°C° 0 mm 2 mps 759 mmHg 94%
01:00 +25°C° 0 mm 2 mps 759 mmHg 94%
02:00 +25°C° 0 mm 1 mps 758 mmHg 95%
03:00 +25°C° 0 mm 1 mps 758 mmHg 95%
04:00 +25°C° 0 mm 1 mps 758 mmHg 95%
05:00 +24°C° 0 mm 1 mps 758 mmHg 95%
06:00 +26°C° 0 mm 1 mps 759 mmHg 91%
07:00 +27°C° 0 mm 1 mps 759 mmHg 87%
08:00 +28°C° 0 mm 1 mps 760 mmHg 83%
09:00 +30°C° 0 mm 1 mps 760 mmHg 76%
10:00 +32°C° 0 mm 1 mps 760 mmHg 69%
11:00 +34°C° 0 mm 2 mps 760 mmHg 62%
12:00 +34°C° 0.1 mm 2 mps 759 mmHg 62%
13:00 +34°C° 0.1 mm 2 mps 758 mmHg 63%
14:00 +34°C° 0.1 mm 2 mps 758 mmHg 63%
15:00 +33°C° 0.1 mm 3 mps 757 mmHg 65%
16:00 +33°C° 0.1 mm 3 mps 757 mmHg 68%
17:00 +32°C° 0.1 mm 4 mps 757 mmHg 70%
18:00 +30°C° 0 mm 4 mps 757 mmHg 76%
19:00 +29°C° 0 mm 4 mps 758 mmHg 82%
20:00 +27°C° 0 mm 4 mps 759 mmHg 88%
21:00 +27°C° 0 mm 4 mps 759 mmHg 90%
22:00 +26°C° 0 mm 3 mps 759 mmHg 92%
23:00 +26°C° 0 mm 3 mps 760 mmHg 94%

14 July, Tuesday

Time Temperature Precipitation Wind Pressure Humidity
00:00 +26°C° 0 mm 3 mps 759 mmHg 94%
01:00 +26°C° 0 mm 2 mps 759 mmHg 95%
02:00 +25°C° 0 mm 2 mps 759 mmHg 95%
03:00 +25°C° 0 mm 2 mps 759 mmHg 95%
04:00 +25°C° 0 mm 1 mps 759 mmHg 95%
05:00 +25°C° 0 mm 1 mps 759 mmHg 95%
06:00 +26°C° 0 mm 1 mps 759 mmHg 91%
07:00 +27°C° 0 mm 1 mps 759 mmHg 86%
08:00 +28°C° 0 mm 1 mps 760 mmHg 82%
09:00 +30°C° 0 mm 1 mps 760 mmHg 74%
10:00 +32°C° 0 mm 1 mps 760 mmHg 65%
11:00 +35°C° 0 mm 1 mps 760 mmHg 57%
12:00 +35°C° 0.2 mm 2 mps 759 mmHg 61%
13:00 +34°C° 0.2 mm 2 mps 759 mmHg 64%
14:00 +33°C° 0.2 mm 3 mps 758 mmHg 68%
15:00 +33°C° 0.3 mm 3 mps 758 mmHg 70%
16:00 +31°C° 0.3 mm 3 mps 757 mmHg 72%
17:00 +31°C° 0.3 mm 3 mps 757 mmHg 75%
18:00 +29°C° 0 mm 3 mps 758 mmHg 79%
19:00 +28°C° 0 mm 3 mps 758 mmHg 84%
20:00 +27°C° 0 mm 3 mps 759 mmHg 88%
21:00 +27°C° 0 mm 3 mps 759 mmHg 89%
22:00 +26°C° 0 mm 3 mps 759 mmHg 91%
23:00 +26°C° 0 mm 3 mps 760 mmHg 92%

15 July, Wednesday

Time Temperature Precipitation Wind Pressure Humidity
00:00 +26°C° 0 mm 2 mps 759 mmHg 93%
01:00 +25°C° 0 mm 2 mps 759 mmHg 94%
02:00 +25°C° 0 mm 1 mps 759 mmHg 95%
03:00 +25°C° 0 mm 1 mps 758 mmHg 95%
04:00 +24°C° 0 mm 1 mps 758 mmHg 96%
05:00 +22°C° 0 mm 0 mps 758 mmHg 96%
06:00 +25°C° 0 mm 1 mps 759 mmHg 92%
07:00 +26°C° 0 mm 1 mps 759 mmHg 89%
08:00 +28°C° 0 mm 1 mps 760 mmHg 85%
09:00 +30°C° 0 mm 1 mps 760 mmHg 76%
10:00 +32°C° 0 mm 1 mps 760 mmHg 68%
11:00 +35°C° 0 mm 2 mps 759 mmHg 60%
12:00 +35°C° 0.3 mm 2 mps 759 mmHg 61%
13:00 +35°C° 0.3 mm 2 mps 758 mmHg 62%
14:00 +34°C° 0.3 mm 2 mps 758 mmHg 63%
15:00 +32°C° 0.5 mm 2 mps 757 mmHg 67%
16:00 +31°C° 0.5 mm 2 mps 757 mmHg 72%
17:00 +30°C° 0.5 mm 2 mps 756 mmHg 76%
18:00 +29°C° 0.2 mm 2 mps 757 mmHg 80%
19:00 +28°C° 0.2 mm 2 mps 757 mmHg 85%
20:00 +26°C° 0.2 mm 2 mps 758 mmHg 89%
21:00 +26°C° 0.2 mm 2 mps 758 mmHg 89%
22:00 +26°C° 0.2 mm 2 mps 759 mmHg 90%
23:00 +26°C° 0.2 mm 2 mps 759 mmHg 90%
Show more